Flag for Switzerland Weather past 2 weeks in Schwyz, Schwyz, Switzerland

Now
47 °F

Passing clouds.


Feels Like: 47 °F
Forecast: 51 / 76 °F
Wind: 1 mph from North

Location: Altdorf

Current Time: May 28, 2015 at 2:46:15 AM

Latest Report: May 28, 2015 at 2:00 AM


Visibility: 16 mi

Pressure: 30.18 "Hg

Humidity: 79%

Dew point: 41 °F

Location of SchwyzLocation

Historic Weather in Schwyz — Graph

°F

Schwyz temperature yesterday

Maximum temperature yesterday: 62 °F (at 3:00 PM)
Minimum temperature yesterday: 48 °F (at 7:00 AM)
Average temperature yesterday: 55 °F

Past Weeks' High & Low Weather Summary

 TemperatureHumidityPressure
High79 °F (May 13, 5:00 PM)94% (May 25, 6:40 AM)30.34 "Hg (May 25, 6:40 AM)
Low42 °F (May 15, 5:00 PM)32% (May 14, 1:00 AM)29.72 "Hg (May 18, 6:00 PM)
Average55 °F76%30.06 "Hg
* Reported May 13 1:00 AM — May 28 1:00 AM, Schwyz, Weather by CustomWeather, © 2015

Note: Actual official high and low records may vary slightly from our data, if they occured in-between our weather recording intervals... More about our weather records

Advertising

Schwyz weather history for previous 24 hours

 ConditionsComfort  
Time TempWeatherWind HumidityBarometerVisibility
1:00 AM
Thu, May 28
49 °FCool.3 mph73%30.18 "HgN/A
12:00 AM49 °FCool.5 mph76%30.20 "HgN/A
10:00 PM
Wed, May 27
50 °FCool.6 mph76%30.19 "HgN/A
9:00 PM55 °FRefreshingly cool.2 mph59%30.15 "HgN/A
8:00 PM59 °FPassing clouds.3 mph50%30.14 "Hg16 mi
7:00 PM59 °FRefreshingly cool.5 mph51%30.14 "HgN/A
6:00 PM61 °FRefreshingly cool.7 mph45%30.14 "HgN/A
5:00 PM62 °FPassing clouds.13 mph46%30.14 "Hg16 mi
4:00 PM61 °FRefreshingly cool.14 mph47%30.16 "HgN/A
3:00 PM62 °FRefreshingly cool.13 mph50%30.17 "HgN/A
2:00 PM60 °FScattered clouds.14 mph53%30.19 "Hg14 mi
1:00 PM59 °FRefreshingly cool.12 mph54%30.20 "HgN/A
12:00 PM57 °FCool.13 mph63%30.21 "HgN/A
11:00 AM55 °FPartly sunny.9 mph59%30.23 "Hg14 mi
10:00 AM54 °FCool.3 mph67%30.23 "HgN/A
9:00 AM52 °FCool.2 mph68%30.23 "HgN/A
8:00 AM49 °FScattered clouds.3 mph85%30.24 "Hg12 mi
7:00 AM48 °FCool.3 mph83%30.24 "HgN/A
6:00 AM50 °FCool.7 mph76%30.22 "HgN/A
4:00 AM49 °FCool.1 mph90%30.21 "HgN/A
3:00 AM49 °FCool.2 mph86%30.21 "HgN/A
2:00 AM50 °FOvercast.3 mph79%30.20 "Hg9 mi
Weather by CustomWeather, © 2015

See weather overviewHow to use our weather pages